Location: Dampvalley
(47.9094°N, 6.1967°E)
Time: 02:00:57
(UTC+00:00)

N. Korean satellite - Pass Details

Date: 11 December 2022
Orbit: 408 x 444 km, 97.3° (Epoch: 28 January)

Event Time Altitude Azimuth Distance (km) Brightness Sun altitude
Rises 17:10:26 0° 213° (SSW) 2,479 11.0 -14.0°
Reaches altitude 10° 17:13:30 10° 244° (WSW) 1,619 10.6 -14.5°
Maximum altitude 17:15:03 12° 270° (W) 1,479 10.1 -14.7°
Drops below altitude 10° 17:16:36 10° 297° (WNW) 1,630 9.9 -15.0°
Sets 17:19:43 0° 328° (NNW) 2,516 10.4 -15.5°
